Change the Weather History Date:

Saturday, February 1, 2014

  Actual Average Record
Temperature  
Mean Temperature 4 °F -  
Max Temperature 15 °F 0 °F 41 °F (1981)
Min Temperature -6 °F -18 °F -48 °F (1993)
Degree Days  
Heating Degree Days 61    
Moisture  
Dew Point 6 °F    
Average Humidity 86    
Maximum Humidity 92    
Minimum Humidity 79    
Precipitation  
Precipitation 0.00 in - - ()
Sea Level Pressure  
Sea Level Pressure 30.52 in    
Wind  
Wind Speed 1 mph (South)    
Max Wind Speed 4 mph    
Max Gust Speed -    
Visibility 10 miles    
Events      
Averages and records for this station are not official NWS values.
T = Trace of Precipitation, MM = Missing Value Source: NWS Daily Summary

Daily Weather History Graph

Daily Weather History Graph

Search for Another Location

Airport or City:

Trip Planner

Search our weather history database for the weather conditions in past years. The results will help you decide how hot, cold, wet, or windy it might be!

Date:

Astronomy

Feb. 01, 2014 Rise Set
Actual Time 9:31 AM AKST 4:33 PM AKST
Civil Twilight 8:33 AM AKST 5:31 PM AKST
Nautical Twilight 7:33 AM AKST 6:31 PM AKST
Astronomical Twilight 6:36 AM AKST 7:28 PM AKST
Moon 9:16 AM AKST (2/1) 8:41 PM AKST (2/1)
Length of Visible Light 8h 57m
Length of Day
7h 01m
Waxing Crescent, 6% of the Moon is Illuminated
Feb 1
Waxing Crescent
Feb 6
First Quarter
Feb 14
Full
Feb 22
Last Quarter
Feb 28
New

Hourly Weather History & Observations

Time (AKST) Temp. Windchill Dew Point Humidity Pressure Visibility Wind Dir Wind Speed Gust Speed Precip Events Conditions
12:58 AM -6.9 °F -15.7 °F -11.9 °F 79% 30.43 in 10.0 mi Variable 3.5 mph - N/A   Partly Cloudy
1:58 AM -4.0 °F - -8.5 °F 81% 30.44 in 10.0 mi Calm Calm - 0.00 in   Overcast
2:58 AM -0.2 °F - -4.4 °F 83% 30.45 in 10.0 mi Calm Calm - N/A   Overcast
3:58 AM 0.5 °F - -3.8 °F 82% 30.46 in 10.0 mi Calm Calm - N/A   Overcast
4:58 AM 2.7 °F - -1.3 °F 84% 30.47 in 10.0 mi Calm Calm - 0.00 in   Overcast
5:58 AM 4.1 °F - -0.0 °F 83% 30.46 in 10.0 mi Calm Calm - 0.00 in   Overcast
6:58 AM 5.4 °F - 1.6 °F 84% 30.47 in 10.0 mi Calm Calm - N/A   Overcast
7:58 AM 6.1 °F - 2.3 °F 84% 30.48 in 10.0 mi Calm Calm - N/A   Overcast
8:43 AM 6.8 °F - 3.2 °F 85% 30.42 in 10.0 mi Calm Calm - N/A   Overcast
8:58 AM 7.0 °F - 3.4 °F 85% 30.48 in 10.0 mi Calm Calm - N/A   Overcast
9:58 AM 7.9 °F - 4.1 °F 85% 30.49 in 10.0 mi Calm Calm - N/A   Overcast
10:58 AM 9.0 °F - 5.5 °F 86% 30.51 in 10.0 mi Calm Calm - N/A   Overcast
11:58 AM 9.9 °F - 6.4 °F 86% 30.52 in 10.0 mi Calm Calm - 0.00 in   Light Freezing Drizzle
12:58 PM 10.9 °F - 7.5 °F 86% 30.53 in 10.0 mi Calm Calm - 0.00 in   Overcast
1:58 PM 11.8 °F - 8.6 °F 87% 30.54 in 10.0 mi Calm Calm - N/A   Overcast
2:58 PM 12.6 °F - 9.3 °F 87% 30.54 in 10.0 mi Calm Calm - N/A   Overcast
3:13 PM 12.2 °F - 8.6 °F 85% 30.49 in 10.0 mi Calm Calm - N/A   Overcast
3:58 PM 12.4 °F - 9.3 °F 88% 30.54 in 10.0 mi Calm Calm - N/A   Overcast
4:13 PM 12.2 °F - 10.4 °F 92% 30.50 in 10.0 mi Calm Calm - N/A   Overcast
4:43 PM 12.2 °F - 8.6 °F 85% 30.51 in 10.0 mi Calm Calm - N/A   Overcast
4:58 PM 12.6 °F - 9.5 °F 88% 30.56 in 10.0 mi Calm Calm - N/A   Overcast
5:13 PM 12.2 °F 6.1 °F 10.4 °F 92% 30.51 in 10.0 mi North 3.5 mph - N/A   Overcast
5:58 PM 13.5 °F - 10.6 °F 88% 30.56 in 10.0 mi Calm Calm - N/A   Overcast
6:13 PM 14.0 °F - 10.4 °F 86% 30.52 in 10.0 mi Calm Calm - N/A   Overcast
6:58 PM 14.2 °F - 11.3 °F 88% 30.57 in 10.0 mi Calm Calm - N/A   Overcast
7:58 PM 14.7 °F - 11.8 °F 88% 30.59 in 10.0 mi Calm Calm - N/A   Overcast
8:58 PM 14.5 °F - 11.8 °F 89% 30.59 in 10.0 mi Calm Calm - N/A   Overcast
9:58 PM 14.5 °F - 11.8 °F 89% 30.60 in 10.0 mi North 1.2 mph - N/A   Overcast
10:58 PM 14.9 °F - 12.4 °F 90% 30.61 in 10.0 mi Calm Calm - N/A   Overcast
11:58 PM 15.3 °F - 12.6 °F 89% 30.62 in 10.0 mi Calm Calm - N/A   Overcast